Grub im Wienerwald
Wetterdaten: aktuell Montag, 20.09.2021 16:21
Datum Zeit Temp. A. Feuchte A. Luftdruck Regen Wind Richtung Richtung Sonnenschein UV Solar Taupunkt Windchill Windben
20.09.2021 16:21 13,4 C 67 % 1018,4 hPa 0,0 l/m 5,9 km/h N-NW 338 0 min 0,9 UV-I 97 W/m 7,4 C 13,4 C 11,3 km/h
20.09.2021 16:18 13,5 C 68 % 1018,5 hPa 0,0 l/m 4,4 km/h N-NW 340 0 min 0,9 UV-I 102 W/m 7,7 C 13,5 C 8,0 km/h
20.09.2021 16:15 13,6 C 67 % 1018,4 hPa 0,0 l/m 3,0 km/h N-NW 340 0 min 1,0 UV-I 105 W/m 7,6 C 13,6 C 9,7 km/h
20.09.2021 16:12 13,6 C 67 % 1018,4 hPa 0,0 l/m 5,7 km/h N-NW 342 0 min 1,0 UV-I 114 W/m 7,6 C 13,6 C 12,9 km/h
20.09.2021 16:09 13,7 C 65 % 1018,4 hPa 0,0 l/m 5,9 km/h N-NW 342 0 min 1,1 UV-I 128 W/m 7,2 C 13,7 C 11,3 km/h
20.09.2021 16:06 13,7 C 65 % 1018,4 hPa 0,0 l/m 7,1 km/h N-NW 344 0 min 1,1 UV-I 130 W/m 7,2 C 13,3 C 11,3 km/h
20.09.2021 16:03 13,8 C 66 % 1018,4 hPa 0,0 l/m 6,7 km/h N-NW 342 0 min 1,1 UV-I 125 W/m 7,6 C 13,6 C 11,3 km/h
20.09.2021 16:00 13,8 C 66 % 1018,4 hPa 0,0 l/m 8,2 km/h N-NW 343 0 min 1,1 UV-I 121 W/m 7,6 C 12,7 C 14,5 km/h
20.09.2021 15:57 13,9 C 65 % 1018,4 hPa 0,0 l/m 7,8 km/h N-NW 333 0 min 1,1 UV-I 128 W/m 7,4 C 13,1 C 14,5 km/h
20.09.2021 15:54 13,9 C 66 % 1018,3 hPa 0,0 l/m 6,5 km/h N-NW 339 0 min 1,3 UV-I 146 W/m 7,7 C 13,9 C 17,7 km/h
20.09.2021 15:51 13,9 C 64 % 1018,2 hPa 0,0 l/m 9,6 km/h N 355 0 min 1,5 UV-I 186 W/m 7,2 C 12,1 C 14,5 km/h
20.09.2021 15:48 14,0 C 66 % 1018,2 hPa 0,0 l/m 9,1 km/h N 355 0 min 1,6 UV-I 200 W/m 7,7 C 12,5 C 14,5 km/h
20.09.2021 15:45 14,0 C 64 % 1018,2 hPa 0,0 l/m 8,6 km/h N-NW 348 0 min 1,7 UV-I 237 W/m 7,3 C 12,7 C 12,9 km/h
20.09.2021 15:42 14,1 C 66 % 1018,1 hPa 0,0 l/m 7,2 km/h N 350 0 min 1,8 UV-I 246 W/m 7,8 C 13,6 C 11,3 km/h
20.09.2021 15:39 14,1 C 65 % 1018,0 hPa 0,0 l/m 6,3 km/h N-NW 332 0 min 1,7 UV-I 230 W/m 7,6 C 14,1 C 11,3 km/h
20.09.2021 15:36 14,0 C 65 % 1018,0 hPa 0,0 l/m 7,6 km/h N-NW 343 0 min 1,7 UV-I 218 W/m 7,5 C 13,3 C 11,3 km/h
20.09.2021 15:33 14,0 C 65 % 1018,0 hPa 0,0 l/m 6,3 km/h N-NW 334 0 min 1,9 UV-I 243 W/m 7,5 C 14,0 C 11,3 km/h
20.09.2021 15:30 14,0 C 65 % 1017,9 hPa 0,0 l/m 5,8 km/h N-NW 340 0 min 2,1 UV-I 253 W/m 7,5 C 14,0 C 11,3 km/h
20.09.2021 15:27 13,9 C 63 % 1018,0 hPa 0,0 l/m 7,6 km/h N-NW 338 0 min 2,1 UV-I 255 W/m 7,0 C 13,2 C 12,9 km/h
20.09.2021 15:24 14,0 C 64 % 1018,1 hPa 0,0 l/m 9,1 km/h N-NW 341 0 min 2,2 UV-I 271 W/m 7,3 C 12,5 C 12,9 km/h
20.09.2021 15:21 14,0 C 64 % 1018,0 hPa 0,0 l/m 7,4 km/h N 5 0 min 2,2 UV-I 269 W/m 7,3 C 13,4 C 12,9 km/h
20.09.2021 15:18 14,0 C 65 % 1018,0 hPa 0,0 l/m 8,4 km/h N-NO 18 0 min 2,2 UV-I 292 W/m 7,5 C 12,8 C 12,9 km/h
20.09.2021 15:15 14,1 C 64 % 1018,0 hPa 0,0 l/m 6,3 km/h N-NW 345 0 min 2,0 UV-I 243 W/m 7,4 C 14,1 C 9,7 km/h
20.09.2021 15:12 14,1 C 63 % 1017,9 hPa 0,0 l/m 5,1 km/h N-NW 346 0 min 2,0 UV-I 220 W/m 7,2 C 14,1 C 11,3 km/h
20.09.2021 15:09 14,2 C 62 % 1018,0 hPa 0,0 l/m 10,0 km/h N-NW 333 0 min 2,0 UV-I 223 W/m 7,0 C 12,2 C 19,3 km/h
20.09.2021 15:06 14,2 C 64 % 1018,0 hPa 0,0 l/m 10,6 km/h N-NW 328 0 min 2,1 UV-I 253 W/m 7,5 C 12,0 C 19,3 km/h
20.09.2021 15:03 14,2 C 63 % 1018,0 hPa 0,0 l/m 8,9 km/h NW 314 0 min 2,4 UV-I 290 W/m 7,3 C 12,8 C 20,9 km/h
20.09.2021 15:00 14,1 C 65 % 1017,9 hPa 0,0 l/m 6,6 km/h N-NW 341 3 min 2,6 UV-I 362 W/m 7,6 C 14,0 C 9,7 km/h
20.09.2021 14:57 14,0 C 66 % 1017,8 hPa 0,0 l/m 4,5 km/h N-NW 348 3 min 2,9 UV-I 399 W/m 7,7 C 14,0 C 9,7 km/h
20.09.2021 14:54 14,0 C 63 % 1017,9 hPa 0,0 l/m 8,6 km/h N-NW 348 3 min 2,8 UV-I 406 W/m 7,1 C 12,7 C 12,9 km/h
20.09.2021 14:51 14,0 C 64 % 1017,9 hPa 0,0 l/m 9,5 km/h W-NW 299 0 min 2,5 UV-I 297 W/m 7,3 C 12,3 C 12,9 km/h
20.09.2021 14:48 14,1 C 62 % 1017,8 hPa 0,0 l/m 10,0 km/h W-NW 295 0 min 2,5 UV-I 267 W/m 6,9 C 12,1 C 17,7 km/h
20.09.2021 14:45 14,1 C 64 % 1017,9 hPa 0,0 l/m 10,4 km/h N-NW 333 0 min 2,6 UV-I 311 W/m 7,4 C 11,9 C 14,5 km/h
20.09.2021 14:42 14,1 C 64 % 1017,8 hPa 0,0 l/m 7,6 km/h N-NW 343 0 min 2,6 UV-I 325 W/m 7,4 C 13,4 C 12,9 km/h
20.09.2021 14:39 14,1 C 66 % 1017,8 hPa 0,0 l/m 5,9 km/h N-NW 340 3 min 2,8 UV-I 343 W/m 7,8 C 14,1 C 9,7 km/h
20.09.2021 14:36 14,1 C 65 % 1017,8 hPa 0,0 l/m 9,2 km/h N-NW 338 0 min 2,7 UV-I 329 W/m 7,6 C 12,5 C 16,1 km/h
20.09.2021 14:33 14,1 C 66 % 1017,8 hPa 0,0 l/m 6,9 km/h N-NO 16 0 min 2,7 UV-I 327 W/m 7,8 C 13,8 C 11,3 km/h
20.09.2021 14:30 14,1 C 66 % 1017,8 hPa 0,0 l/m 8,7 km/h N 5 3 min 2,8 UV-I 348 W/m 7,8 C 12,8 C 14,5 km/h
20.09.2021 14:27 14,1 C 67 % 1017,8 hPa 0,0 l/m 6,1 km/h N 360 0 min 2,7 UV-I 325 W/m 8,1 C 14,1 C 12,9 km/h
20.09.2021 14:24 14,1 C 65 % 1017,7 hPa 0,0 l/m 8,3 km/h N-NW 347 0 min 2,8 UV-I 330 W/m 7,6 C 13,0 C 16,1 km/h
20.09.2021 14:21 14,2 C 66 % 1017,7 hPa 0,0 l/m 7,9 km/h N-NW 348 0 min 2,7 UV-I 318 W/m 7,9 C 13,3 C 16,1 km/h
20.09.2021 14:18 14,2 C 65 % 1017,7 hPa 0,0 l/m 10,3 km/h N-NW 332 0 min 2,8 UV-I 322 W/m 7,7 C 12,1 C 17,7 km/h
20.09.2021 14:15 14,2 C 67 % 1017,7 hPa 0,0 l/m 7,6 km/h NW 313 0 min 3,0 UV-I 329 W/m 8,2 C 13,5 C 12,9 km/h
20.09.2021 14:12 14,2 C 69 % 1017,7 hPa 0,0 l/m 6,6 km/h N-NW 329 3 min 3,2 UV-I 422 W/m 8,6 C 14,1 C 14,5 km/h
20.09.2021 14:09 14,2 C 69 % 1017,7 hPa 0,0 l/m 7,7 km/h N 350 0 min 3,1 UV-I 348 W/m 8,6 C 13,4 C 12,9 km/h
20.09.2021 14:06 14,1 C 69 % 1017,7 hPa 0,0 l/m 8,5 km/h W-NW 299 3 min 3,4 UV-I 413 W/m 8,5 C 12,9 C 12,9 km/h
20.09.2021 14:03 14,0 C 71 % 1017,7 hPa 0,0 l/m 6,8 km/h N 5 3 min 3,4 UV-I 396 W/m 8,8 C 13,8 C 12,9 km/h
20.09.2021 14:00 13,9 C 68 % 1017,7 hPa 0,0 l/m 9,7 km/h N-NO 17 3 min 3,6 UV-I 429 W/m 8,1 C 12,0 C 14,5 km/h
20.09.2021 13:57 13,9 C 68 % 1017,7 hPa 0,0 l/m 8,9 km/h N 360 3 min 3,4 UV-I 373 W/m 8,1 C 12,5 C 16,1 km/h
20.09.2021 13:54 13,9 C 68 % 1017,8 hPa 0,0 l/m 10,1 km/h N-NW 343 0 min 3,0 UV-I 350 W/m 8,1 C 11,9 C 17,7 km/h
20.09.2021 13:51 13,9 C 67 % 1017,7 hPa 0,0 l/m 8,4 km/h NW 323 3 min 3,2 UV-I 374 W/m 7,9 C 12,7 C 11,3 km/h
20.09.2021 13:48 13,9 C 68 % 1017,7 hPa 0,0 l/m 7,3 km/h N 355 0 min 3,1 UV-I 359 W/m 8,1 C 13,4 C 11,3 km/h
20.09.2021 13:45 13,8 C 69 % 1017,7 hPa 0,0 l/m 9,3 km/h N 355 3 min 3,2 UV-I 378 W/m 8,2 C 12,1 C 14,5 km/h
20.09.2021 13:42 13,8 C 68 % 1017,7 hPa 0,0 l/m 6,1 km/h N-NW 346 0 min 3,0 UV-I 341 W/m 8,0 C 13,8 C 11,3 km/h
20.09.2021 13:39 13,8 C 67 % 1017,7 hPa 0,0 l/m 5,9 km/h N-NW 331 0 min 2,9 UV-I 329 W/m 7,8 C 13,8 C 11,3 km/h
20.09.2021 13:36 13,8 C 68 % 1017,7 hPa 0,0 l/m 9,6 km/h N-NW 331 0 min 3,1 UV-I 359 W/m 8,0 C 12,0 C 14,5 km/h
20.09.2021 13:33 13,8 C 68 % 1017,7 hPa 0,0 l/m 7,3 km/h N-NO 15 3 min 3,5 UV-I 399 W/m 8,0 C 13,3 C 14,5 km/h
20.09.2021 13:30 13,8 C 68 % 1017,6 hPa 0,0 l/m 9,6 km/h N-NO 13 3 min 3,6 UV-I 427 W/m 8,0 C 12,0 C 14,5 km/h
20.09.2021 13:27 13,8 C 68 % 1017,6 hPa 0,0 l/m 11,1 km/h N-NW 332 3 min 3,5 UV-I 408 W/m 8,0 C 11,3 C 17,7 km/h
20.09.2021 13:24 13,7 C 67 % 1017,6 hPa 0,0 l/m 9,4 km/h N-NW 335 3 min 3,5 UV-I 397 W/m 7,7 C 12,0 C 16,1 km/h
20.09.2021 13:21 13,7 C 68 % 1017,7 hPa 0,0 l/m 6,3 km/h N-NO 22 3 min 3,6 UV-I 429 W/m 7,9 C 13,7 C 14,5 km/h
20.09.2021 13:18 13,6 C 69 % 1017,6 hPa 0,0 l/m 9,0 km/h N 5 3 min 3,7 UV-I 390 W/m 8,0 C 12,1 C 12,9 km/h
20.09.2021 13:15 13,5 C 70 % 1017,7 hPa 0,0 l/m 4,8 km/h N-NO 23 3 min 3,8 UV-I 392 W/m 8,1 C 13,5 C 11,3 km/h
20.09.2021 13:12 13,4 C 69 % 1017,6 hPa 0,0 l/m 2,7 km/h N-NO 27 3 min 4,5 UV-I 534 W/m 7,8 C 13,4 C 9,7 km/h
20.09.2021 13:09 13,2 C 70 % 1017,7 hPa 0,0 l/m 7,8 km/h N 11 3 min 3,9 UV-I 461 W/m 7,9 C 12,3 C 12,9 km/h
20.09.2021 13:06 13,3 C 72 % 1017,7 hPa 0,0 l/m 6,4 km/h N-NW 348 3 min 3,7 UV-I 410 W/m 8,4 C 13,3 C 14,5 km/h
20.09.2021 13:03 13,3 C 69 % 1017,8 hPa 0,0 l/m 7,5 km/h N-NW 347 0 min 3,0 UV-I 304 W/m 7,7 C 12,6 C 12,9 km/h
20.09.2021 13:00 13,3 C 70 % 1017,8 hPa 0,0 l/m 9,2 km/h N-NW 339 0 min 2,4 UV-I 230 W/m 7,9 C 11,7 C 12,9 km/h
20.09.2021 12:57 13,3 C 70 % 1017,7 hPa 0,0 l/m 5,5 km/h N-NW 338 0 min 1,8 UV-I 186 W/m 7,9 C 13,3 C 11,3 km/h
20.09.2021 12:54 13,3 C 69 % 1017,7 hPa 0,0 l/m 5,9 km/h N-NW 338 0 min 1,8 UV-I 192 W/m 7,7 C 13,3 C 16,1 km/h
20.09.2021 12:51 13,3 C 70 % 1017,8 hPa 0,0 l/m 8,0 km/h N-NW 336 3 min 2,5 UV-I 459 W/m 7,9 C 12,3 C 12,9 km/h
20.09.2021 12:48 13,2 C 69 % 1017,7 hPa 0,0 l/m 7,1 km/h N-NW 338 3 min 3,2 UV-I 404 W/m 7,6 C 12,8 C 14,5 km/h
20.09.2021 12:45 13,2 C 68 % 1017,7 hPa 0,0 l/m 6,5 km/h N-NW 340 0 min 3,0 UV-I 355 W/m 7,4 C 13,2 C 12,9 km/h
20.09.2021 12:42 13,2 C 72 % 1017,8 hPa 0,0 l/m 6,7 km/h N-NW 333 3 min 3,0 UV-I 388 W/m 8,3 C 13,0 C 12,9 km/h
20.09.2021 12:39 13,1 C 72 % 1017,8 hPa 0,0 l/m 8,2 km/h NW 326 3 min 3,4 UV-I 378 W/m 8,2 C 12,0 C 12,9 km/h
20.09.2021 12:36 12,9 C 72 % 1017,8 hPa 0,0 l/m 6,5 km/h N 349 3 min 3,5 UV-I 418 W/m 8,0 C 12,9 C 11,3 km/h
20.09.2021 12:33 12,8 C 73 % 1017,8 hPa 0,0 l/m 7,6 km/h N-NW 342 3 min 3,6 UV-I 401 W/m 8,1 C 12,0 C 11,3 km/h
20.09.2021 12:30 12,7 C 72 % 1017,9 hPa 0,0 l/m 8,0 km/h N-NW 342 0 min 3,5 UV-I 371 W/m 7,8 C 11,7 C 14,5 km/h
20.09.2021 12:27 12,7 C 73 % 1017,9 hPa 0,0 l/m 6,7 km/h N-NW 342 0 min 3,2 UV-I 311 W/m 8,0 C 12,5 C 11,3 km/h
20.09.2021 12:24 12,6 C 74 % 1017,9 hPa 0,0 l/m 7,0 km/h N-NW 345 0 min 3,1 UV-I 315 W/m 8,1 C 12,2 C 11,3 km/h
20.09.2021 12:21 12,6 C 74 % 1017,8 hPa 0,0 l/m 4,9 km/h N-NW 340 0 min 3,0 UV-I 290 W/m 8,1 C 12,6 C 8,0 km/h
20.09.2021 12:18 12,6 C 74 % 1017,8 hPa 0,0 l/m 4,3 km/h N-NW 340 0 min 2,7 UV-I 255 W/m 8,1 C 12,6 C 8,0 km/h
20.09.2021 12:15 12,6 C 74 % 1017,8 hPa 0,0 l/m 2,7 km/h N-NW 339 0 min 2,0 UV-I 190 W/m 8,1 C 12,6 C 8,0 km/h
20.09.2021 12:12 12,6 C 73 % 1017,8 hPa 0,0 l/m 3,7 km/h N-NW 339 0 min 1,7 UV-I 169 W/m 7,9 C 12,6 C 6,4 km/h
20.09.2021 12:09 12,6 C 73 % 1017,8 hPa 0,0 l/m 4,3 km/h N-NW 339 0 min 1,9 UV-I 207 W/m 7,9 C 12,6 C 9,7 km/h
20.09.2021 12:06 12,6 C 72 % 1017,8 hPa 0,0 l/m 6,7 km/h N-NW 339 0 min 2,1 UV-I 218 W/m 7,7 C 12,4 C 11,3 km/h
20.09.2021 12:03 12,6 C 73 % 1017,8 hPa 0,0 l/m 3,0 km/h N-NW 340 0 min 2,2 UV-I 227 W/m 7,9 C 12,6 C 9,7 km/h
20.09.2021 12:00 12,5 C 72 % 1017,8 hPa 0,0 l/m 8,8 km/h NW 319 0 min 2,2 UV-I 223 W/m 7,6 C 11,0 C 14,5 km/h
20.09.2021 11:57 12,4 C 73 % 1017,8 hPa 0,0 l/m 7,0 km/h NW 307 0 min 2,4 UV-I 257 W/m 7,7 C 12,0 C 14,5 km/h
20.09.2021 11:54 12,4 C 73 % 1017,8 hPa 0,0 l/m 7,9 km/h N-NW 348 0 min 2,8 UV-I 294 W/m 7,7 C 11,4 C 14,5 km/h
20.09.2021 11:51 12,4 C 73 % 1017,8 hPa 0,0 l/m 7,6 km/h N-NW 348 0 min 2,6 UV-I 274 W/m 7,7 C 11,6 C 12,9 km/h
_ Min-Zeit 03:15 14:48 17:06 - 17:27 - - - - - 14:48 09:45 17:27
Minimum _ 9,3 C 62 % 1012,7 hPa - 0,0 km/h - - - - - 6,9 C 8,3 C 0,0 km/h
_ Max-Zeit 17:00 02:54 16:18 17:00 13:27 - - 10:15 13:12 13:12 17:45 17:00 11:30
Maximum _ 14,7 C 89 % 1018,5 hPa 0,0 l/m 11,1 km/h
N-NW
- - 3 min 4,5 UV-I 534 W/m 10,4 C 14,7 C 20,9 km/h
NW
Durchschnitt _ 11,7 C 79 % 1015,3 hPa #0,0 l/m 3,3 km/h N - #1:36 h 2,2 UV-I 218 W/m 8,2 C 11,5 C 6,5 km/h
Schulla EDV